Buffalo, NY

2:21 PM EST on November 14, 2019 (GMT -0500)
Buffalo Niagara International

Weather History for KBUF - September, 2019

Change the Weather History Date:

Thursday, September 19, 2019

  Actual Average Record
Temperature  
Mean Temperature 65 °F 61 °F  
Max Temperature 77 °F 70 °F 88 °F (1946)
Min Temperature 53 °F 52 °F 38 °F (1993)
Degree Days  
Heating Degree Days 0 5  
Month to date heating degree days 21 58  
Since 1 July heating degree days 24 85  
Cooling Degree Days 0 1  
Month to date cooling degree days 26 44  
Year to date cooling degree days 571 531  
Growing Degree Days 15 (Base 50)    
Moisture  
Dew Point 48 °F    
Average Humidity 57    
Maximum Humidity 80    
Minimum Humidity 33    
Precipitation  
Precipitation 0.00 in 0.14 in 2.09 in (1948)
Month to date precipitation 4.52 2.33  
Year to date precipitation 32.89 27.49  
Snow  
Snow 0.00 in 0.00 in 0.00 in ()
Month to date snowfall 0.0 0.0  
Since 1 July snowfall 0.0 0.0  
Since 1 September snowfall 0.0 0.0  
Snow Depth 0.00 in    
Sea Level Pressure  
Sea Level Pressure 30.24 in    
Wind  
Wind Speed 6 mph (SSE)    
Max Wind Speed 12 mph    
Max Gust Speed 16 mph    
Visibility 10 miles    
Events      
T = Trace of Precipitation, MM = Missing Value Source: NWS Daily Summary

Daily Weather History Graph

Daily Weather History Graph

Search for Another Location

Airport or City:

Astronomy

Sep. 19, 2019 Rise Set
Actual Time 6:58 AM EDT 7:18 PM EDT
Civil Twilight 6:30 AM EDT 7:46 PM EDT
Nautical Twilight 5:56 AM EDT 8:19 PM EDT
Astronomical Twilight 5:22 AM EDT 8:53 PM EDT
Moon 10:18 PM EDT (9/19) 12:07 PM EDT (9/19)
Length of Visible Light 13h 16m
Length of Day
12h 19m
Waning Gibbous, 74% of the Moon is Illuminated
Sep 19
Waning Gibbous
Sep 21
Last Quarter
Sep 28
New
Oct 5
First Quarter
Oct 13
Full

Hourly Weather History & Observations

Time (EDT) Temp. Dew Point Humidity Pressure Visibility Wind Dir Wind Speed Gust Speed Precip Events Conditions
12:54 AM 57.9 °F 51.1 °F 78% 30.25 in 10.0 mi SE 5.8 mph - N/A   Mostly Cloudy
1:54 AM 57.9 °F 50.0 °F 75% 30.26 in 10.0 mi SE 5.8 mph - N/A   Mostly Cloudy
2:54 AM 57.0 °F 48.9 °F 74% 30.27 in 10.0 mi SE 5.8 mph - N/A   Mostly Cloudy
3:54 AM 55.9 °F 48.0 °F 75% 30.26 in 10.0 mi SE 5.8 mph - N/A   Mostly Cloudy
4:54 AM 54.0 °F 46.9 °F 77% 30.26 in 10.0 mi SE 6.9 mph - N/A   Mostly Cloudy
5:54 AM 54.0 °F 46.9 °F 77% 30.25 in 10.0 mi SSE 8.1 mph - N/A   Mostly Cloudy
6:54 AM 54.0 °F 46.0 °F 75% 30.26 in 10.0 mi SE 5.8 mph - N/A   Scattered Clouds
7:54 AM 55.0 °F 46.0 °F 72% 30.28 in 10.0 mi SSE 5.8 mph - N/A   Scattered Clouds
8:54 AM 57.0 °F 46.9 °F 69% 30.30 in 10.0 mi South 4.6 mph - N/A   Mostly Cloudy
9:54 AM 61.0 °F 46.9 °F 60% 30.31 in 10.0 mi South 3.5 mph - N/A   Partly Cloudy
10:54 AM 66.0 °F 50.0 °F 56% 30.28 in 10.0 mi South 8.1 mph - N/A   Scattered Clouds
11:54 AM 70.0 °F 48.9 °F 47% 30.27 in 10.0 mi South 9.2 mph - N/A   Scattered Clouds
12:54 PM 71.1 °F 46.0 °F 41% 30.26 in 10.0 mi SSW 4.6 mph - N/A   Partly Cloudy
1:54 PM 73.9 °F 46.0 °F 37% 30.25 in 10.0 mi South 6.9 mph - N/A   Scattered Clouds
2:54 PM 75.0 °F 45.0 °F 34% 30.24 in 10.0 mi WSW 5.8 mph - N/A   Scattered Clouds
3:54 PM 75.0 °F 48.0 °F 38% 30.22 in 10.0 mi SSW 6.9 mph - N/A   Mostly Cloudy
4:54 PM 75.0 °F 48.0 °F 38% 30.20 in 10.0 mi South 4.6 mph - N/A   Mostly Cloudy
5:54 PM 73.9 °F 48.9 °F 41% 30.20 in 10.0 mi ESE 4.6 mph - N/A   Mostly Cloudy
6:54 PM 72.0 °F 51.1 °F 48% 30.20 in 10.0 mi East 3.5 mph - N/A   Mostly Cloudy
7:54 PM 69.1 °F 48.9 °F 49% 30.21 in 10.0 mi SE 8.1 mph - N/A   Mostly Cloudy
8:54 PM 64.0 °F 51.1 °F 63% 30.22 in 10.0 mi South 5.8 mph - N/A   Mostly Cloudy
9:54 PM 63.0 °F 50.0 °F 63% 30.22 in 10.0 mi SSE 5.8 mph - N/A   Scattered Clouds
10:54 PM 62.1 °F 50.0 °F 65% 30.21 in 10.0 mi South 8.1 mph - N/A   Scattered Clouds
11:54 PM 61.0 °F 50.0 °F 67% 30.21 in 10.0 mi SSE 4.6 mph - N/A   Scattered Clouds